Agadir Al Massira, Morocco

12:17 PM WEST on April 26, 2018 (GMT +0100)
Agadir Al Massira

Weather History for GMAD - January, 2013

Change the Weather History Date:

Monday, January 21, 2013

  Actual Average Record
Temperature  
Mean Temperature 55 °F -  
Max Temperature 66 °F - - ()
Min Temperature 44 °F - - ()
Degree Days  
Heating Degree Days 10    
Growing Degree Days 5 (Base 50)    
Moisture  
Dew Point 49 °F    
Average Humidity 77    
Maximum Humidity 94    
Minimum Humidity 45    
Precipitation  
Precipitation 0.00 in - - ()
Sea Level Pressure  
Sea Level Pressure 30.05 in    
Wind  
Wind Speed 4 mph ()    
Max Wind Speed 9 mph    
Max Gust Speed -    
Visibility 6.1 miles    
Events      
T = Trace of Precipitation, MM = Missing Value Source: Averaged Metar Reports

Daily Weather History Graph

Daily Weather History Graph

Search for Another Location

Airport or City:

Astronomy

Jan. 21, 2013 Rise Set
Actual Time 7:33 AM WET 6:04 PM WET
Civil Twilight 7:07 AM WET 6:30 PM WET
Nautical Twilight 6:38 AM WET 6:59 PM WET
Astronomical Twilight 6:09 AM WET 7:28 PM WET
Moon 1:36 PM WET (1/21) 2:49 AM WET (1/21)
Length of Visible Light 11h 22m
Length of Day
10h 31m
Waxing Gibbous, 73% of the Moon is Illuminated
Jan 21
Waxing Gibbous
Jan 27
Full
Feb 3
Last Quarter
Feb 10
New
Feb 17
First Quarter

Hourly Weather History & Observations

Time (WET) Temp. Dew Point Humidity Pressure Visibility Wind Dir Wind Speed Gust Speed Precip Events Conditions
12:00 AM 51.8 °F 48.2 °F 88% 30.06 in - East 4.6 mph - N/A   Unknown
1:00 AM 51.8 °F 46.4 °F 82% 30.06 in - ENE 6.9 mph - N/A   Clear
2:00 AM 48.2 °F 46.4 °F 93% 30.06 in - East 6.9 mph - N/A   Clear
3:00 AM 51 °F 47 °F 81% 30.07 in 6 mi East 6.9 mph - -   Clear
3:00 AM 50.0 °F 46.4 °F 87% 30.06 in 6.2 mi East 6.9 mph - N/A   Unknown
4:00 AM 50.0 °F 46.4 °F 87% 30.06 in - ENE 2.3 mph - N/A   Unknown
5:00 AM 48.2 °F 44.6 °F 87% 30.04 in - East 4.6 mph - N/A   Unknown
6:00 AM 49 °F 46 °F 87% 30.06 in 6 mi ESE 5.8 mph - -   Clear
6:00 AM 50.0 °F 46.4 °F 87% 30.04 in - ESE 5.8 mph - N/A   Clear
7:00 AM 44.6 °F 42.8 °F 93% 30.06 in 6.2 mi Calm Calm - N/A   Scattered Clouds
8:00 AM 48.2 °F 44.6 °F 87% 30.06 in 6.2 mi ENE 4.6 mph - N/A   Mostly Cloudy
9:00 AM 51 °F 47 °F 83% 30.10 in 6 mi ENE 5.8 mph - -   Mostly Cloudy
9:00 AM 50.0 °F 46.4 °F 87% 30.09 in 6.2 mi ENE 6.9 mph - N/A   Mostly Cloudy
10:00 AM 59.0 °F 50.0 °F 72% 30.09 in 6.2 mi Variable 1.2 mph - N/A   Scattered Clouds
11:00 AM 62.6 °F 50.0 °F 63% 30.09 in 6.2 mi Variable 2.3 mph - N/A   Scattered Clouds
12:00 PM 63 °F 50 °F 52% 30.09 in 6 mi East 2.3 mph - -   Partly Cloudy
12:00 PM 62.6 °F 50.0 °F 63% 30.09 in 6.2 mi Variable 2.3 mph - N/A   Scattered Clouds
1:00 PM 66.2 °F 50.0 °F 56% 30.06 in 6.2 mi Calm Calm - N/A   Scattered Clouds
2:00 PM 66.2 °F 50.0 °F 56% 30.04 in 6.2 mi Variable 1.2 mph - N/A   Scattered Clouds
3:00 PM 66 °F 50 °F 45% 30.02 in 6 mi West 3.5 mph - -   Mostly Cloudy
3:00 PM 66.2 °F 50.0 °F 56% 30.01 in 6.2 mi West 3.5 mph - N/A   Mostly Cloudy
4:00 PM 66.2 °F 51.8 °F 60% 30.01 in 6.2 mi West 9.2 mph - N/A   Mostly Cloudy
5:00 PM 64.4 °F 51.8 °F 64% 30.04 in 6.2 mi West 9.2 mph - N/A   Mostly Cloudy
6:00 PM 60 °F 53 °F 72% 30.03 in 6 mi West 6.9 mph - -   Mostly Cloudy
6:00 PM 60.8 °F 53.6 °F 77% 30.04 in 6.2 mi West 6.9 mph - N/A   Mostly Cloudy
7:00 PM 59.0 °F 53.6 °F 82% 30.01 in 6.2 mi WSW 2.3 mph - N/A   Scattered Clouds
8:00 PM 55.4 °F 51.8 °F 88% 30.04 in 6.2 mi Calm Calm - N/A   Scattered Clouds
9:00 PM 56 °F 53 °F 86% 30.06 in 6 mi SE 3.5 mph - -   Partly Cloudy
9:00 PM 55.4 °F 53.6 °F 94% 30.04 in 6.2 mi SE 3.5 mph - N/A   Scattered Clouds
10:00 PM 57.2 °F 55.4 °F 94% 30.06 in 6.2 mi ESE 2.3 mph - N/A   Scattered Clouds
11:00 PM 55.4 °F 51.8 °F 88% 30.06 in 6.2 mi Calm Calm - N/A   Scattered Clouds